Flag for Germany Weather past 2 weeks in Garbsen, Lower Saxony, Germany

Now
61 °F

Fog.


Feels Like: 61 °F
Forecast: 53 / 70 °F
Wind: 2 mph from North

Location: Hannover

Current Time: Oct 2, 2014 at 10:37:55 AM

Latest Report: Oct 2, 2014 at 10:20 AM


Visibility: 2 mi

Pressure: 30.39 "Hg

Humidity: 94%

Dew point: 59 °F

Location of GarbsenLocation

Historic Weather in Garbsen — Graph

°F

Garbsen temperature yesterday

Maximum temperature yesterday: 68 °F (at 3:50 PM)
Minimum temperature yesterday: 50 °F (at 5:50 AM)
Average temperature yesterday: 58 °F

Past Weeks' High & Low Weather Summary

 TemperatureHumidityPressure
High75 °F (Sep 17, 3:50 PM)100% (Sep 18, 5:50 AM)30.39 "Hg (Sep 18, 5:50 AM)
Low43 °F (Sep 23, 4:50 AM)47% (Sep 17, 5:50 PM)29.80 "Hg (Sep 24, 4:50 PM)
Average59 °F83%30.08 "Hg
* Reported Sep 17 9:20 AM — Oct 2 9:20 AM, Garbsen, Weather by CustomWeather, © 2014

Note: Actual official high and low records may vary slightly from our data, if they occured in-between our weather recording intervals... More about our weather records

Advertising

Garbsen weather history for previous 24 hours

 ConditionsComfort  
Time TempWeatherWind HumidityBarometerVisibility
9:20 AM
Oct 2
57 °FFog.1 mph100%30.39 "Hg1 mi
8:50 AM55 °FFog.No wind100%30.39 "Hg1 mi
8:20 AM55 °FFog.1 mph100%30.39 "Hg1 mi
7:50 AM54 °FFog.1 mph100%30.36 "Hg1 mi
7:20 AM55 °FFog.5 mph100%30.36 "Hg1 mi
6:50 AM54 °FFog.1 mph100%30.36 "Hg1 mi
6:20 AM54 °FFog.1 mph100%30.36 "Hg1 mi
5:50 AM52 °FCool.2 mph100%30.36 "Hg1 mi
5:20 AM54 °FFog.2 mph100%30.36 "Hg1 mi
4:50 AM54 °FFog.2 mph100%30.36 "Hg1 mi
4:20 AM54 °FCool.No wind100%30.36 "Hg1 mi
3:50 AM55 °FCool.1 mph94%30.36 "Hg1 mi
3:20 AM55 °FFog.2 mph100%30.36 "Hg1 mi
2:50 AM55 °FFog.1 mph100%30.36 "Hg1 mi
2:20 AM55 °FFog.2 mph100%30.36 "Hg1 mi
1:50 AM55 °FCool.No wind100%30.36 "Hg2 mi
1:20 AM55 °FCool.2 mph94%30.36 "Hg2 mi
12:50 AM54 °FCool.2 mph100%30.36 "Hg2 mi
12:20 AM54 °FCool.2 mph100%30.33 "Hg2 mi
11:50 PM
Oct 1
55 °FCool.2 mph94%30.36 "Hg2 mi
11:20 PM55 °FCool.2 mph94%30.33 "Hg2 mi
10:50 PM55 °FFog.2 mph94%30.33 "Hg5 mi
10:20 PM57 °FFog.3 mph94%30.33 "Hg5 mi
9:50 PM57 °FFog.2 mph94%30.33 "Hg5 mi
9:20 PM57 °FFog.5 mph94%30.33 "Hg5 mi
8:50 PM57 °FFog.2 mph100%30.33 "HgN/A
8:20 PM57 °FPassing clouds.No wind94%30.33 "HgN/A
7:50 PM59 °FPassing clouds.1 mph94%30.30 "HgN/A
7:20 PM61 °FPassing clouds.1 mph88%30.30 "HgN/A
6:50 PM63 °FPassing clouds.No wind83%30.30 "HgN/A
6:20 PM66 °FPassing clouds.1 mph73%30.30 "HgN/A
5:50 PM66 °FPassing clouds.5 mph73%30.30 "HgN/A
5:20 PM68 °FPassing clouds.5 mph69%30.30 "HgN/A
4:50 PM68 °FPassing clouds.5 mph69%30.30 "HgN/A
4:20 PM68 °FPassing clouds.3 mph69%30.30 "HgN/A
3:50 PM68 °FScattered clouds.6 mph69%30.30 "HgN/A
3:20 PM66 °FPartly sunny.5 mph73%30.30 "Hg5 mi
2:50 PM66 °FPartly sunny.5 mph78%30.30 "Hg5 mi
2:20 PM66 °FPartly sunny.3 mph73%30.30 "Hg4 mi
1:50 PM64 °FPartly sunny.6 mph78%30.30 "Hg4 mi
1:20 PM64 °FPartly sunny.5 mph83%30.33 "Hg4 mi
12:50 PM64 °FPartly sunny.6 mph83%30.33 "Hg4 mi
12:20 PM64 °FFog.6 mph78%30.30 "Hg2 mi
11:50 AM63 °FFog.5 mph83%30.30 "Hg2 mi
11:20 AM63 °FFog.3 mph88%30.30 "Hg2 mi
10:50 AM61 °FFog.5 mph88%30.30 "Hg2 mi
10:20 AM59 °FFog.5 mph94%30.30 "Hg2 mi
Weather by CustomWeather, © 2014

See weather overviewHow to use our weather pages